| time (UTC) | temp C | wind direction | speed KPH | gust KPH | rain 1hr cm | rain 24hr cm | rain mn cm | humidity % | barometer mb |
| 20260507192859 | 11 | 293 | 0.0 | 0.0 | 0.00 | 0.00 | 0.00 | 80 | 1014.4 |
| 20260507190658 | 11 | 293 | 0.0 | 0.0 | 0.00 | 0.00 | 0.00 | 78 | 1014.3 |
| 20260507185651 | 11 | 293 | 0.0 | 0.0 | 0.00 | 0.00 | 0.00 | 77 | 1014.4 |
| 20260507184702 | 11 | 293 | 0.0 | 0.0 | 0.00 | 0.00 | 0.00 | 77 | 1014.4 |
| 20260507183629 | 11 | 293 | 0.0 | 0.0 | 0.00 | 0.00 | 0.00 | 76 | 1014.4 |
| 20260507182615 | 12 | 345 | 1.6 | 14.5 | 0.00 | 0.00 | 0.00 | 75 | 1014.4 |
| 20260507181559 | 12 | 290 | 4.8 | 14.5 | 0.00 | 0.00 | 0.00 | 73 | 1014.4 |
| 20260507180532 | 13 | 258 | 0.0 | 3.2 | 0.00 | 0.00 | 0.00 | 72 | 1014.2 |
| 20260507175509 | 13 | 213 | 0.0 | 0.0 | 0.00 | 0.00 | 0.00 | 72 | 1014.1 |
| 20260507173355 | 13 | 213 | 0.0 | 0.0 | 0.00 | 0.00 | 0.00 | 71 | 1014.0 |
| 20260507172359 | 13 | 213 | 0.0 | 4.8 | 0.00 | 0.00 | 0.00 | 70 | 1014.0 |
| 20260507171359 | 13 | 0 | 1.6 | 8.0 | 0.00 | 0.00 | 0.00 | 70 | 1014.0 |
| 20260507170404 | 13 | 153 | 0.0 | 8.0 | 0.00 | 0.00 | 0.00 | 69 | 1014.1 |
| 20260507164221 | 14 | 324 | 0.0 | 4.8 | 0.00 | 0.00 | 0.00 | 66 | 1014.1 |
| 20260507163152 | 15 | 35 | 0.0 | 3.2 | 0.00 | 0.00 | 0.00 | 67 | 1014.0 |
| 20260507162201 | 15 | 256 | 0.0 | 4.8 | 0.00 | 0.00 | 0.00 | 67 | 1014.0 |
| 20260507161146 | 15 | 24 | 0.0 | 8.0 | 0.00 | 0.00 | 0.00 | 67 | 1014.0 |
| 20260507160114 | 14 | 161 | 1.6 | 9.7 | 0.00 | 0.00 | 0.00 | 66 | 1014.1 |
| 20260507155127 | 14 | 114 | 1.6 | 9.7 | 0.00 | 0.00 | 0.00 | 66 | 1014.1 |
| 20260507154113 | 14 | 349 | 0.0 | 3.2 | 0.00 | 0.00 | 0.00 | 67 | 1014.0 |
| 20260507153102 | 14 | 302 | 0.0 | 3.2 | 0.00 | 0.00 | 0.00 | 66 | 1014.1 |
| 20260507152033 | 14 | 198 | 0.0 | 4.8 | 0.00 | 0.00 | 0.00 | 65 | 1014.1 |
| 20260507145916 | 14 | 340 | 1.6 | 8.0 | 0.00 | 0.00 | 0.00 | 66 | 1014.2 |
| 20260507144921 | 14 | 277 | 0.0 | 8.0 | 0.00 | 0.00 | 0.00 | 66 | 1014.2 |
| 20260507143934 | 14 | 242 | 0.0 | 0.0 | 0.00 | 0.00 | 0.00 | 66 | 1014.2 |
| 20260507142904 | 13 | 76 | 0.0 | 4.8 | 0.00 | 0.00 | 0.00 | 66 | 1014.5 |
| 20260507141913 | 13 | 320 | 0.0 | 6.4 | 0.00 | 0.00 | 0.00 | 64 | 1014.5 |
| 20260507140927 | 13 | 46 | 0.0 | 1.6 | 0.00 | 0.00 | 0.00 | 66 | 1014.5 |
| 20260507135932 | 14 | 35 | 0.0 | 9.7 | 0.00 | 0.00 | 0.00 | 64 | 1014.5 |
| 20260507134906 | 14 | 109 | 1.6 | 9.7 | 0.00 | 0.00 | 0.00 | 63 | 1014.5 |
| 20260507133903 | 14 | 17 | 0.0 | 4.8 | 0.00 | 0.00 | 0.00 | 66 | 1014.5 |
| 20260507132835 | 14 | 98 | 0.0 | 3.2 | 0.00 | 0.00 | 0.00 | 67 | 1014.6 |
| 20260507131846 | 13 | 61 | 0.0 | 3.2 | 0.00 | 0.00 | 0.00 | 66 | 1014.7 |
| 20260507130903 | 13 | 47 | 1.6 | 8.0 | 0.00 | 0.00 | 0.00 | 65 | 1014.7 |
| 20260507125847 | 14 | 325 | 0.0 | 3.2 | 0.00 | 0.00 | 0.00 | 67 | 1014.7 |
| 20260507124907 | 14 | 49 | 0.0 | 1.6 | 0.00 | 0.00 | 0.00 | 68 | 1014.7 |
| 20260507123930 | 14 | 55 | 0.0 | 1.6 | 0.00 | 0.00 | 0.00 | 66 | 1014.7 |
| 20260507122946 | 14 | 90 | 0.0 | 6.4 | 0.00 | 0.00 | 0.00 | 67 | 1014.7 |
| 20260507121921 | 13 | 84 | 0.0 | 0.0 | 0.00 | 0.00 | 0.00 | 69 | 1014.7 |
| 20260507115832 | 13 | 84 | 0.0 | 4.8 | 0.00 | 0.00 | 0.00 | 68 | 1014.9 |
| 20260507113707 | 13 | 161 | 1.6 | 11.3 | 0.00 | 0.00 | 0.00 | 69 | 1015.0 |
| 20260507111532 | 14 | 90 | 1.6 | 8.0 | 0.00 | 0.00 | 0.00 | 74 | 1015.1 |
| 20260507110529 | 13 | 50 | 1.6 | 8.0 | 0.00 | 0.00 | 0.00 | 73 | 1015.2 |
| 20260507105536 | 13 | 213 | 0.0 | 4.8 | 0.00 | 0.00 | 0.00 | 74 | 1015.4 |
| 20260507104515 | 12 | 229 | 0.0 | 0.0 | 0.00 | 0.00 | 0.00 | 76 | 1015.4 |
| 20260507103519 | 12 | 98 | 0.0 | 0.0 | 0.00 | 0.00 | 0.00 | 79 | 1015.5 |
| 20260507102503 | 12 | 49 | 0.0 | 0.0 | 0.00 | 0.00 | 0.00 | 83 | 1015.5 |
| 20260507101517 | 11 | 10 | 0.0 | 0.0 | 0.00 | 0.00 | 0.00 | 84 | 1015.7 |
| 20260507095344 | 10 | 78 | 0.0 | 0.0 | 0.00 | 0.00 | 0.00 | 86 | 1015.6 |
| 20260507094316 | 10 | 80 | 0.0 | 0.0 | 0.00 | 0.00 | 0.00 | 86 | 1015.7 |
| 20260507093316 | 9 | 133 | 0.0 | 0.0 | 0.00 | 0.00 | 0.00 | 87 | 1015.6 |
| 20260507091137 | 8 | 146 | 0.0 | 0.0 | 0.00 | 0.00 | 0.00 | 89 | 1015.6 |
| 20260507090120 | 8 | 63 | 0.0 | 0.0 | 0.00 | 0.00 | 0.00 | 89 | 1015.6 |
| 20260507085138 | 8 | 63 | 0.0 | 0.0 | 0.00 | 0.00 | 0.00 | 90 | 1015.7 |
| 20260507084149 | 8 | 63 | 0.0 | 0.0 | 0.00 | 0.00 | 0.00 | 90 | 1015.7 |
| 20260507075806 | 7 | 63 | 0.0 | 0.0 | 0.00 | 0.00 | 0.00 | 91 | 1015.7 |
| 20260507074810 | 7 | 63 | 0.0 | 0.0 | 0.00 | 0.00 | 0.00 | 91 | 1015.7 |
| 20260507073747 | 7 | 63 | 0.0 | 0.0 | 0.00 | 0.00 | 0.00 | 91 | 1015.7 |
| 20260507072743 | 7 | 63 | 0.0 | 0.0 | 0.00 | 0.00 | 0.00 | 91 | 1015.6 |
| 20260507071759 | 7 | 63 | 0.0 | 0.0 | 0.00 | 0.00 | 0.00 | 91 | 1015.6 |
| 20260507065543 | 6 | 63 | 0.0 | 0.0 | 0.00 | 0.00 | 0.00 | 91 | 1015.3 |
| 20260507064542 | 6 | 63 | 0.0 | 0.0 | 0.00 | 0.00 | 0.00 | 91 | 1015.4 |
| 20260507063532 | 6 | 63 | 0.0 | 0.0 | 0.00 | 0.00 | 0.00 | 92 | 1015.3 |
| 20260507062533 | 6 | 63 | 0.0 | 0.0 | 0.00 | 0.00 | 0.00 | 92 | 1015.3 |
| 20260507061554 | 6 | 63 | 0.0 | 0.0 | 0.00 | 0.00 | 0.00 | 92 | 1015.3 |
| 20260507060548 | 6 | 63 | 0.0 | 0.0 | 0.00 | 0.00 | 0.00 | 91 | 1015.3 |
| 20260507055603 | 6 | 63 | 0.0 | 0.0 | 0.00 | 0.00 | 0.00 | 91 | 1015.3 |
| 20260507054621 | 6 | 63 | 0.0 | 0.0 | 0.00 | 0.00 | 0.00 | 91 | 1015.3 |
| 20260507053606 | 6 | 63 | 0.0 | 0.0 | 0.00 | 0.00 | 0.00 | 91 | 1015.2 |
| 20260507052621 | 6 | 63 | 0.0 | 0.0 | 0.00 | 0.00 | 0.00 | 91 | 1015.2 |
| 20260507051629 | 6 | 63 | 0.0 | 0.0 | 0.00 | 0.00 | 0.00 | 91 | 1015.1 |
| 20260507050642 | 6 | 63 | 0.0 | 0.0 | 0.00 | 0.00 | 0.00 | 91 | 1015.2 |
| 20260507045641 | 6 | 63 | 0.0 | 0.0 | 0.00 | 0.00 | 0.00 | 91 | 1015.1 |
| 20260507044648 | 6 | 63 | 0.0 | 0.0 | 0.00 | 0.00 | 0.00 | 90 | 1015.1 |
| 20260507043629 | 6 | 63 | 0.0 | 0.0 | 0.00 | 0.00 | 0.00 | 90 | 1015.0 |
| 20260507042619 | 6 | 63 | 0.0 | 0.0 | 0.00 | 0.00 | 0.00 | 90 | 1015.0 |
| 20260507041604 | 6 | 63 | 0.0 | 0.0 | 0.00 | 0.00 | 0.00 | 90 | 1014.9 |
| 20260507035433 | 6 | 63 | 0.0 | 0.0 | 0.00 | 0.00 | 0.00 | 90 | 1014.8 |
| 20260507033258 | 6 | 63 | 0.0 | 0.0 | 0.00 | 0.00 | 0.00 | 89 | 1014.9 |
| 20260507032300 | 6 | 63 | 0.0 | 0.0 | 0.00 | 0.00 | 0.00 | 89 | 1015.1 |
| 20260507031309 | 6 | 63 | 0.0 | 0.0 | 0.00 | 0.00 | 0.00 | 89 | 1015.1 |
| 20260507030326 | 6 | 63 | 0.0 | 0.0 | 0.00 | 0.00 | 0.00 | 89 | 1015.2 |
| 20260507025345 | 6 | 63 | 0.0 | 0.0 | 0.00 | 0.00 | 0.00 | 88 | 1015.0 |
| 20260507024328 | 6 | 63 | 0.0 | 0.0 | 0.00 | 0.00 | 0.00 | 89 | 1015.0 |
| 20260507022216 | 6 | 63 | 0.0 | 0.0 | 0.00 | 0.00 | 0.00 | 88 | 1015.0 |
| 20260507021200 | 6 | 63 | 0.0 | 0.0 | 0.00 | 0.00 | 0.00 | 88 | 1015.0 |
| 20260507020216 | 6 | 63 | 0.0 | 0.0 | 0.00 | 0.00 | 0.00 | 88 | 1015.0 |
| 20260507015154 | 6 | 63 | 0.0 | 0.0 | 0.00 | 0.00 | 0.00 | 88 | 1015.0 |
| 20260507014204 | 6 | 63 | 0.0 | 0.0 | 0.00 | 0.00 | 0.00 | 87 | 1015.1 |
| 20260507012033 | 6 | 63 | 0.0 | 0.0 | 0.00 | 0.00 | 0.00 | 87 | 1015.2 |
| 20260507005948 | 7 | 63 | 0.0 | 0.0 | 0.00 | 0.00 | 0.00 | 86 | 1015.1 |
| 20260507004926 | 7 | 63 | 0.0 | 0.0 | 0.00 | 0.00 | 0.00 | 86 | 1015.0 |
| 20260507002759 | 7 | 63 | 0.0 | 0.0 | 0.00 | 0.00 | 0.00 | 85 | 1015.2 |
| 20260507001730 | 7 | 63 | 0.0 | 0.0 | 0.00 | 0.00 | 0.00 | 85 | 1015.3 |
| 20260507000720 | 7 | 63 | 0.0 | 0.0 | 0.00 | 0.00 | 0.00 | 84 | 1015.2 |
| 20260506235654 | 7 | 63 | 0.0 | 0.0 | 0.00 | 0.00 | 0.00 | 85 | 1015.2 |
| 20260506234638 | 7 | 63 | 0.0 | 1.6 | 0.00 | 0.00 | 0.00 | 84 | 1015.1 |
| 20260506233630 | 7 | 60 | 0.0 | 3.2 | 0.00 | 0.00 | 0.00 | 84 | 1015.2 |
| 20260506232606 | 7 | 113 | 0.0 | 1.6 | 0.00 | 0.00 | 0.00 | 84 | 1015.2 |
| 20260506231549 | 7 | 66 | 0.0 | 0.0 | 0.00 | 0.00 | 0.00 | 84 | 1015.0 |
| 20260506225447 | 7 | 76 | 1.6 | 4.8 | 0.00 | 0.00 | 0.00 | 83 | 1014.9 |
| 20260506223331 | 8 | 72 | 1.6 | 3.2 | 0.00 | 0.00 | 0.00 | 82 | 1014.8 |
| 20260506222321 | 8 | 72 | 1.6 | 4.8 | 0.00 | 0.00 | 0.00 | 82 | 1014.9 |
| 20260506221306 | 8 | 68 | 1.6 | 4.8 | 0.00 | 0.00 | 0.00 | 81 | 1014.8 |
| 20260506220253 | 8 | 71 | 1.6 | 3.2 | 0.00 | 0.00 | 0.00 | 81 | 1014.8 |
| 20260506215306 | 8 | 67 | 1.6 | 4.8 | 0.00 | 0.00 | 0.00 | 81 | 1014.8 |
| 20260506213134 | 8 | 59 | 0.0 | 3.2 | 0.00 | 0.00 | 0.00 | 81 | 1014.6 |
| 20260506212110 | 7 | 37 | 0.0 | 0.0 | 0.00 | 0.00 | 0.00 | 80 | 1014.6 |
| 20260506211110 | 7 | 37 | 0.0 | 0.0 | 0.00 | 0.00 | 0.00 | 79 | 1014.6 |
| 20260506210109 | 8 | 37 | 0.0 | 0.0 | 0.00 | 0.00 | 0.00 | 78 | 1014.5 |
| 20260506205036 | 8 | 37 | 0.0 | 0.0 | 0.00 | 0.00 | 0.00 | 77 | 1014.5 |
| 20260506204054 | 8 | 36 | 0.0 | 0.0 | 0.00 | 0.00 | 0.00 | 76 | 1014.4 |
| 20260506203109 | 8 | 36 | 0.0 | 0.0 | 0.00 | 0.00 | 0.00 | 75 | 1014.4 |
| 20260506202133 | 8 | 36 | 0.0 | 0.0 | 0.00 | 0.00 | 0.00 | 74 | 1014.3 |
| 20260506201101 | 8 | 36 | 0.0 | 0.0 | 0.00 | 0.00 | 0.00 | 73 | 1014.2 |
| 20260506200110 | 9 | 36 | 0.0 | 0.0 | 0.00 | 0.00 | 0.00 | 73 | 1014.1 |
| 20260506193937 | 9 | 36 | 0.0 | 0.0 | 0.00 | 0.00 | 0.00 | 71 | 1013.8 |